Location: Boca do Mato
(22.9085°S, 43.2930°W)
Time: 22:42:30
(UTC+00:00)

Cosmos 1980 Rocket - Pass Details

Date: 14 July 2020
Orbit: 828 x 851 km, 71.0° (Epoch: 10 August)

Event Time Altitude Azimuth Distance (km) Brightness Sun altitude
Exits shadow 08:57:04 10° 262° (W) 2,473 4.0 -8.7°
Reaches altitude 10° 08:57:14 10° 260° (W) 2,455 4.0 -8.6°
Maximum altitude 08:58:55 11° 242° (WSW) 2,366 3.9 -8.3°
Drops below altitude 10° 09:00:36 10° 225° (SW) 2,457 4.1 -7.9°
Sets 09:05:08 0° 191° (S) 3,395 5.0 -6.9°
